Location: Faicchio
(41.2833°N, 14.4833°E)
Time: 05:58:17
(UTC+00:00)

Cosmos 2369 Rocket - Pass Details

Date: 15 June 2025
Orbit: 827 x 852 km, 71.0° (Epoch: 16 July)

Event Time Altitude Azimuth Distance (km) Brightness Sun altitude
Exits shadow 02:27:13 - 198° (SSW) 2,594 4.2 -9.9°
Reaches altitude 10° 02:27:33 10° 198° (SSW) 2,467 4.1 -9.8°
Maximum altitude 02:33:13 81° 112° (ESE) 865 2.3 -9.1°
Drops below altitude 10° 02:38:57 10° 26° (NNE) 2,487 5.9 -8.3°
Sets 02:41:25 0° 25° (NNE) 3,425 6.8 -7.9°
